Location: Newark
(55.7083°N, 13.1992°E)
Time: 23:52:49
(UTC+00:00)

Envisat - Pass Details

Date: 09 October 2022
Orbit: 763 x 765 km, 98.2° (Epoch: 09 December)

Event Time Altitude Azimuth Distance (km) Brightness Sun altitude
Rises 01:52:06 0° 27° (NNE) 3,248 7.2 -29.3°
Reaches altitude 10° 01:55:48 10° 54° (NE) 2,315 6.4 -28.9°
Maximum altitude 01:58:09 13° 82° (E) 2,099 6.0 -28.6°
Drops below altitude 10° 02:00:30 10° 110° (ESE) 2,307 5.9 -28.4°
Sets 02:04:09 0° 137° (SE) 3,226 6.3 -27.9°
